Belize, Belize

12:48 PM CST on May 23, 2018 (GMT -0600)
Philip S W Goldson International

Weather History for MZBZ - October, 2012

Change the Weather History Date:

Monday, October 29, 2012

  Actual Average Record
Temperature  
Mean Temperature 77 °F -  
Max Temperature 83 °F 85 °F 89 °F (2002)
Min Temperature 71 °F 71 °F 68 °F (1999)
Cooling Degree Days 12    
Growing Degree Days 27 (Base 50)    
Moisture  
Dew Point 71 °F    
Average Humidity 76    
Maximum Humidity 94    
Minimum Humidity 58    
Precipitation  
Precipitation 0.00 in 0.24 in - ()
Sea Level Pressure  
Sea Level Pressure 29.98 in    
Wind  
Wind Speed 5 mph ()    
Max Wind Speed 12 mph    
Max Gust Speed -    
Visibility 8.1 miles    
Events      
Averages and records for this station are not official NWS values.
T = Trace of Precipitation, MM = Missing Value Source: Averaged Metar Reports

Daily Weather History Graph

Daily Weather History Graph

Search for Another Location

Airport or City:

Astronomy

Oct. 29, 2012 Rise Set
Actual Time 5:50 AM CST 5:22 PM CST
Civil Twilight 5:28 AM CST 5:44 PM CST
Nautical Twilight 5:02 AM CST 6:10 PM CST
Astronomical Twilight 4:37 AM CST 6:36 PM CST
Moon 5:20 PM CST (10/29) 5:37 AM CST (10/29)
Length of Visible Light 12h 16m
Length of Day
11h 31m
Full, 100% of the Moon is Illuminated
Oct 29
Full
Oct 29
Full
Nov 6
Last Quarter
Nov 13
New
Nov 20
First Quarter

Hourly Weather History & Observations

Time (CST) Temp. Heat Index Dew Point Humidity Pressure Visibility Wind Dir Wind Speed Gust Speed Precip Events Conditions
12:00 AM 74 °F - 72 °F 91% 29.97 in 12 mi Calm Calm - -   Scattered Clouds
5:00 AM 73.4 °F - 71.6 °F 94% 29.95 in 6.2 mi WNW 5.8 mph - N/A   Partly Cloudy
6:00 AM 72 °F - 71 °F 94% 29.99 in 12 mi WNW 5.8 mph - -   Scattered Clouds
6:00 AM 71.6 °F - 69.8 °F 94% 29.98 in 6.2 mi WNW 5.8 mph - N/A   Scattered Clouds
7:00 AM 73.4 °F - 71.6 °F 94% 29.98 in 6.2 mi NW 4.6 mph - N/A   Mostly Cloudy
8:00 AM 77.0 °F - 71.6 °F 83% 30.01 in 6.2 mi North 11.5 mph - N/A   Mostly Cloudy
9:00 AM 79 °F - 69 °F 65% 30.04 in 12 mi NNW 10.4 mph - -   Partly Cloudy
9:00 AM 78.8 °F - 69.8 °F 74% 30.03 in 6.2 mi NNW 10.4 mph - N/A   Scattered Clouds
10:00 AM 80.6 °F 83.9 °F 69.8 °F 70% 30.02 in 6.2 mi North 9.2 mph - N/A   Scattered Clouds
11:00 AM 82.4 °F 86.3 °F 69.8 °F 66% 30.00 in 6.2 mi North 9.2 mph - N/A   Mostly Cloudy
12:00 PM 82 °F - 70 °F 58% 29.99 in 12 mi NNW 8.1 mph - -   Mostly Cloudy
12:00 PM 82.4 °F 86.3 °F 69.8 °F 66% 29.98 in 6.2 mi NNW 8.1 mph - N/A   Mostly Cloudy
1:00 PM 82.4 °F 86.3 °F 69.8 °F 66% 29.96 in 6.2 mi NNW 6.9 mph - N/A   Mostly Cloudy
2:00 PM 82.4 °F 86.3 °F 69.8 °F 66% 29.94 in 6.2 mi North 8.1 mph - N/A   Mostly Cloudy
3:00 PM 82 °F - 69 °F 58% 29.94 in 12 mi NW 6.9 mph - -   Mostly Cloudy
3:00 PM 82.4 °F 86.3 °F 69.8 °F 66% 29.94 in 6.2 mi NW 6.9 mph - N/A   Mostly Cloudy
4:00 PM 80.6 °F 84.6 °F 71.6 °F 74% 29.94 in 6.2 mi WNW 4.6 mph - N/A   Mostly Cloudy
5:00 PM 80.6 °F 84.6 °F 71.6 °F 74% 29.95 in 6.2 mi WNW 3.5 mph - N/A   Scattered Clouds
6:00 PM 78 °F - 73 °F 80% 29.97 in 12 mi Calm Calm - -   Partly Cloudy
6:00 PM 78.8 °F - 73.4 °F 83% 29.97 in 6.2 mi Calm Calm - N/A   Scattered Clouds
9:00 PM 75 °F - 71 °F 83% 30.03 in 12 mi Calm Calm - -   Scattered Clouds